Regional Weather Roundup
Issued by NWS Little Rock, AR

Home | Current Version | Previous Version | Text Only | Print | Product List | Glossary Off
Versions: 1 2 3 4 5 6 7 8 9 10 11 12 13 14 15 16 17 18 19 20 21 22 23 24 25 26 27 28 29 30 31 32 33 34 35 36 37 38 39 40 41 42 43 44 45 46 47 48 49 50

000
ASUS44 KLZK 220505
RWRLZK

WEATHER ROUNDUP FOR ARKANSAS
NATIONAL WEATHER SERVICE LITTLE ROCK AR
1100 PM CST FRI NOV 21 2014

NOTE: "FAIR" INDICATES FEW OR NO CLOUDS BELOW 12,000 FEET WITH NO
SIGNIFICANT WEATHER AND/OR OBSTRUCTIONS TO VISIBILITY.

ARZ001-003-010-029-220600-
NORTHWEST ARKANSAS

CITY           SKY/WX    TMP DP  RH WIND       PRES   REMARKS
FAYETTEVILLE   CLOUDY    53  48  83 S16G32    30.15F
FORT SMITH     CLOUDY    50  47  89 E9        30.18S
HARRISON       FOG       43  43 100 E6        30.19F VSB 1/2
BENTONVILLE    CLOUDY    54  48  82 S15G23    30.15S
ROGERS         CLOUDY    54  49  83 S16       30.15S
SILOAM SPGS    CLOUDY    54  46  76 S13G20    30.15S
HIGHFILL       CLOUDY    54  50  86 S13G22    30.13S
$$

ARZ004-005-016-220600-
NORTH CENTRAL ARKANSAS

CITY           SKY/WX    TMP DP  RH WIND       PRES   REMARKS
BATESVILLE     CLOUDY    43  39  87 CALM      30.26S VSB 1/2
FLIPPIN        CLOUDY    43  37  81 E3        30.24R
MTN HOME       CLOUDY    42  41  96 E3        30.23S FOG
$$

ARZ040-041-220600-
WEST CENTRAL ARKANSAS

CITY           SKY/WX    TMP DP  RH WIND       PRES   REMARKS
MENA           CLOUDY    57  52  82 SE5       30.19R
MOUNT IDA      LGT RAIN  51  50  96 SE6       30.19S FOG
$$

ARZ009-017-025-026-028-220600-
NORTHEAST ARKANSAS

CITY           SKY/WX    TMP DP  RH WIND       PRES   REMARKS
CORNING        CLOUDY    41  41 100 NE5       30.27F FOG
JONESBORO      CLOUDY    45  41  86 NE7       30.27S
NEWPORT        MOCLDY    43  42  96 N6        30.28S
WALNUT RIDGE   MOCLDY    43  37  81 NE5       30.26S
BLYTHEVILLE    CLOUDY    57  39  51 S5        30.28S
$$

ARZ022-023-033-042-044-220600-
CENTRAL ARKANSAS

CITY           SKY/WX    TMP DP  RH WIND       PRES   REMARKS
LITTLE ROCK    MOCLDY    47  44  90 CALM      30.25S FOG
N LITTLE ROCK  MOCLDY    48  48 100 E5        30.25S
SEARCY         CLOUDY    45  45 100 CALM      30.27S FOG
HOT SPRINGS    CLOUDY    50  49  96 E5        30.23F FOG
RUSSELLVILLE   CLOUDY    48  46  93 VRB3      30.23S FOG
CLINTON        CLOUDY    45  45 100 CALM      30.26F FOG
$$

ARZ036-220600-
EAST ARKANSAS

CITY           SKY/WX    TMP DP  RH WIND       PRES   REMARKS
WEST MEMPHIS   CLOUDY    51  49  92 SE7       30.27R
$$

ARZ050-053-066-070-073-220600-
SOUTHWEST ARKANSAS

CITY           SKY/WX    TMP DP  RH WIND       PRES   REMARKS
ARKADELPHIA    MOCLDY    52  52 100 CALM      30.24S FOG
CAMDEN         MOCLDY    54  52  94 NE3       30.24R
TEXARKANA      CLOUDY    55  53  93 SE8       30.20S
EL DORADO      CLOUDY    57  50  77 SE7       30.23F
DE QUEEN       CLOUDY    55  54  96 E3        30.19R FOG
$$

ARZ056-057-069-220600-
SOUTHEAST ARKANSAS

CITY           SKY/WX    TMP DP  RH WIND       PRES   REMARKS
PINE BLUFF     CLOUDY    49  47  93 E5        30.25S FOG
STUTTGART      CLOUDY    50  46  87 E6        30.26S
MONTICELLO     CLOUDY    56  50  80 CALM      30.25S

$$




USA.gov is the U.S. government's official web portal to all federal, state and local government web resources and services.